Volver al catálogo

STARLINK-3185

ActivoComunicacionesVLEO
NORAD 51144·PAYLOAD·🇺🇸 United States

Lanzado Jan 19, 2022 desde Cape Canaveral Space Force Station

Loading…

Próximos Pases (próximas 24 horas)

TLE

ActualizadoSource: CelesTrak SupGP

Época: Sep 14, 2026, 21:32 UTC

1 51144C 22005AS  26257.89770833 -.00032961  00000+0 -10599-2 0  2576
2 51144  53.1576 155.8781 0001591  92.4774 280.8166 15.31718846    14

Sigue STARLINK-3185 en tiempo real con AllMySat

Download on the App Store